Weather in Kabekhabl

Russia / Republic of Adygea     45°03′01″N   40°10′51″E
temp.,
°C
wind,
m/s
gust,
m/s
humid.,
%
clouds,
%
prec.,
mm/h
press.,
hPa
HPBL,
m
15 may, sat
sat1500:00+17wsw478647 0.0 1011103
03:00+14wsw34925 0.0 101267
06:00+14wsw35840 0.0 1014114
09:00+20w33687 0.0 1014379
12:00+23nw22621 0.0 1014641
15:00+26n225913 0.0 1013882
18:00+25ne22735 0.0 1012211
21:00+20ne33883 0.0 101235
16 may, sun
sun1600:00+18ene239314 0.4 101047
03:00+17w11955 1.8 101011
06:00+18ne119451 0.2 101053
09:00+23ene2384100 0.2 1008508
12:00+27ene4569100 0.0 10071085
15:00+28ene5763100 0.0 10051604
18:00+26e497616 0.0 1003372
21:00+20e49780 0.0 1003145
17 may, mon
mon1700:00+18e358164 0.0 100273
03:00+17s229239 0.0 100226
06:00+17wnw35898 0.0 1004127
09:00+21nw6875100 0.0 1006563
12:00+23w4566100 0.0 1008863
15:00+21nw6776100 1.2 1008634
18:00+18wsw2789100 5.8 1009243
21:00+16ssw3795100 8.3 1012183
18 may, tue
tue1800:00+15ssw2495100 1.7 101298
03:00+14nnw1193100 2.4 101320
06:00+14wsw1593100 0.0 1014227
09:00+18wsw4580100 0.0 1014667
12:00+22w56654 0.0 10141320
15:00+23wnw56619 0.0 10131531
18:00+20w367569 0.0 1014312
21:00+15wsw338460 0.0 101535
19 may, wed
wed1900:00+13ssw22885 0.0 101511
03:00+13se339210 0.0 101535
06:00+15ese11895 0.0 101537
09:00+20se33715 0.0 1015450
12:00+24ese33559 0.0 10131046
15:00+26ese3453100 0.0 10121320
18:00+24e487398 0.0 1010280
21:00+19ese413840 0.0 1010221